Regional Weather Roundup
Issued by NWS

Home | Current Version | Previous Version | Text Only | Print | Product List | Glossary Off
Versions: 1 2 3 4 5 6 7 8 9 10 11 12 13 14 15 16 17 18 19 20 21 22 23 24 25 26 27 28 29 30 31 32 33 34 35 36 37 38 39 40 41 42 43 44 45 46 47 48 49 50

000
ASUS43 KMKX 172321
RWRWI

WISCONSIN REGIONAL WEATHER ROUNDUP
NATIONAL WEATHER SERVICE MILWAUKEE/SULLIVAN WI
500 PM CST TUE JAN 17 2017

NOTE: "FAIR" INDICATES FEW OR NO CLOUDS BELOW 12,000 FEET WITH NO
SIGNIFICANT WEATHER AND/OR OBSTRUCTIONS TO VISIBILITY.

WIZ001-002-006>008-014>016-023>028-180000-
NORTHWEST WISCONSIN

CITY           SKY/WX    TMP DP  RH WIND       PRES   REMARKS
SUPERIOR ARPT  CLEAR     31  25  79 CALM      29.92F
ASHLAND        CLEAR     32  25  75 S3        29.93S
HAYWARD        CLEAR     36  24  62 CALM      29.93R
SIREN          CLEAR     33  25  70 W6        29.95S WCI  28
CUMBERLAND     CLEAR     34  28  80 W5        29.95R WCI  30
RICE LAKE      CLEAR     37  30  78 W5        29.96R WCI  33
CHETEK         CLEAR     34  32  93 NW5       29.95R WCI  30
LADYSMITH      CLEAR     38  32  80 W3        29.94R
EAU CLAIRE     CLOUDY    35  33  92 W7        29.95R WCI  29
MENOMONIE      CLEAR     34  31  88 W6        29.98R WCI  29
NEW RICHMOND   CLEAR     31  29  93 W6        29.99R WCI  25
OSCEOLA        MOCLDY    31  31 100 W6        30.01R WCI  26
$$

WIZ003>005-009-010-017-018-180000-
NORTH CENTRAL WISCONSIN

CITY           SKY/WX    TMP DP  RH WIND       PRES   REMARKS
MANITOWISH WTR CLEAR     34  25  69 CALM      29.89R
ARBOR VITAE    CLEAR     34  30  85 CALM      29.89R
WOODRUFF       CLEAR     34  30  85 CALM      29.89R
RHINELANDER    CLOUDY    39  32  76 CALM      29.89R
EAGLE RIVER    CLOUDY    37  27  66 CALM      29.88R
LAND O LAKES   PTCLDY    33  28  80 CALM      29.90R
PHILLIPS       CLEAR     35  30  83 CALM      29.90R
TOMAHAWK       PTCLDY    33  30  88 CALM      29.90R
MEDFORD        PTCLDY    36  33  90 W5        29.89R WCI  32
MERRILL        CLOUDY    35  35  99 CALM        N/A
$$

WIZ029-030-035-036-043>047-180000-
CENTRAL WISCONSIN

CITY           SKY/WX    TMP DP  RH WIND       PRES   REMARKS
WAUSAU         CLOUDY    35  34  96 W3        29.89R
MOSINEE        CLOUDY    34  34 100 NW3       29.90R FOG
MARSHFIELD     CLOUDY    35  32  88 NW6       29.90R WCI  30
STEVENS POINT  CLOUDY    33  33 100 CALM      29.91R FOG
WAUPACA        CLOUDY    36  34  93 CALM      29.92R
WAUTOMA        CLOUDY    34  34 100 NW3       29.94R FOG
WISC RAPIDS    CLOUDY    34  34 100 NW5       29.93R WCI  30
CAMP DOUGLAS   DRIZZLE   34  34 100 W6        29.93R FOG     WCI  29
$$

WIZ011>013-019>022-031-037>040-048>050-180000-
NORTHEAST WISCONSIN

CITY           SKY/WX    TMP DP  RH WIND       PRES   REMARKS
ANTIGO         CLOUDY    33  33 100 NW6       29.88S WCI  28
SHAWANO        CLOUDY    35  33  94 N5        29.91R FOG     WCI  31
OCONTO         CLOUDY    33  33  98 N7        29.89S WCI  27
STURGEON BAY   MIX PCPN  32  32 100 N16       29.89R VSB 1/2 WCI  21
GREEN BAY      CLOUDY    35  35 100 N7        29.90R FOG     WCI  29
MANITOWOC      LGT RAIN  34  33  96 NW8       29.88R FOG     WCI  27
APPLETON       FOG       34  34 100 NW5       29.88R VSB 1/4 WCI  30
CLINTONVILLE   CLOUDY    34  32  93 N3        29.91R
OSHKOSH        LGT RAIN  34  32  92 NW6       29.90R FOG     WCI  29
$$

WIZ032>034-041-042-053>061-180000-
SOUTHWEST WISCONSIN

CITY           SKY/WX    TMP DP  RH WIND       PRES   REMARKS
LA CROSSE      LGT RAIN  36  34  92 NW6       29.97R WCI  31
SPARTA         LGT RAIN  33  33 100 W3        29.96R
VIROQUA        CLOUDY    32  32 100 NW6       29.94R WCI  27
BOSCOBEL       LGT SNOW  34  33  96 SW5       29.97R FOG     WCI  30
PRAIRIE DU CHI LGT RAIN  33  33  96 NW3       29.98R
PLATTEVILLE    CLOUDY    33  33 100 W7        29.95R WCI  27
$$

WIZ056-057-062-063-064-067-068-180000-
SOUTH CENTRAL WISCONSIN

CITY           SKY/WX    TMP DP  RH WIND       PRES   REMARKS
REEDSBURG      CLOUDY    33  33 100 W5        29.92R FOG     WCI  29
BARABOO/DELLS  CLOUDY    33  33  99 W5        29.92R FOG     WCI  29
LONE ROCK      LGT RAIN  34  32  92 W5        29.96R FOG     WCI  30
MINERAL POINT  LGT SNOW  34  34 100 W7        29.93R WCI  28
MADISON        CLOUDY    34  33  96 NW6       29.92R FOG     WCI  29
MIDDLETON      CLOUDY    35  35 100 W5        29.92R WCI  31
WATERTOWN      CLOUDY    33  33 100 W5        29.91R FOG     WCI  29
MONROE         CLOUDY    32  32 100 W7        29.92R FOG     WCI  26
JANESVILLE     CLOUDY    36  36 100 W10       29.92R FOG     WCI  28
$$

WIZ051-052-058>065-066-070>072-180000-
SOUTHEAST WISCONSIN

CITY           SKY/WX    TMP DP  RH WIND       PRES   REMARKS
MILWAUKEE      CLOUDY    37  33  85 W10       29.90R WCI  30
WAUKESHA       FOG       32  32 100 W8        29.91R VSB 1/2 WCI  25
MILWAUKEE/TIMM DRIZZLE   34  32  93 W9        29.90R WCI  26
RACINE         CLOUDY    37  33  85 W6        29.92R WCI  32
KENOSHA        CLOUDY    36  34  92 W9        29.91R FOG     WCI  29
FOND DU LAC    CLOUDY    34  32  92 NW6       29.89R FOG     WCI  29
SHEBOYGAN      LGT RAIN  34  33  96 NW5       29.88R FOG     WCI  30
WEST BEND      CLOUDY    32  32 100 W6        29.89R FOG     WCI  26
JUNEAU         DRIZZLE   32  32  99 W3        29.91R
$$

LSZ147-162-180000-
LAKE SUPERIOR

STATION/POSITION TIME  TEMP    WIND        PRES    WAVE
                       AIR SEA DIR/SP/G            HT/PER
                 (UTC) (F)     (DEG/KT/KT) (MB)    (FT/S)
DEVILS ISLAND    2300   31     190/  6/  7 1013.8F
PORT WING        2240   33     170/  3/  3 1013.5F
SAXON HARBOR     2230   29     200/  1/  2 1013.9S
$$

LMZ867-665-643>646-180000-
LAKE MICHIGAN

STATION/POSITION TIME  TEMP    WIND        PRES    WAVE
                       AIR SEA DIR/SP/G            HT/PER
                 (UTC) (F)     (DEG/KT/KT) (MB)    (FT/S)
NORTHPORT PIER   2300   33      10/  8/ 15 1012.5
SISTER BAY       2150   33      30/  8/ 10   N/A
ALGOMA LAKESHORE 2238          330/  9/ 12   N/A
KEWAUNEE LAKESHO 2254   34     330/  6/  9 1011.1R
SHEBOYGAN LAKESH 2300   35     300/  8/  9 1012.3R
PORT WASHINGTON  2230   36     290/  6/ 10 1012.9R
MILWAUKEE LAKESH 2300   36     280/ 11/ 13   N/A
KENOSHA   LAKESH 2300   36     260/  9/ 13 1013.2
$$

TC  - TEMPERATURE IN CELSIUS
VSB - VISIBILITY IN STATUTE MILES
WCI - WIND CHILL INDEX
HX  - HEAT INDEX





USA.gov is the U.S. government's official web portal to all federal, state and local government web resources and services.